SCP
1 1 1 1 1 1 1 1 1 1 1 1 1 1 1 1 1 1 1 1 1 1 1 1 1 1 1 1 1 0 0 0 0 0 0 0 0 0 0 0 0 0 0
1 1 1 1 1 1 1 1 1 1 1 1 1 1 1 1 1 1 1 1 1 1 1 1 1 1 1 1 1 1 0 0 0 0 0 0 0 0 0 0 0 0 0
1 1 1 1 1 1 1 1 1 1 1 1 1 1 1 1 1 1 0 0 1 1 1 1 1 1 1 1 1 1 0 0 0 0 0 0 0 0 0 0 0 0 0
1 1 1 1 1 1 1 1 1 1 1 1 1 1 1 0 0 0 0 0 0 1 1 1 1 1 1 1 1 1 0 0 0 0 0 0 0 0 0 0 0 0 0
1 1 1 1 1 1 1 1 1 1 1 0 0 0 0 0 0 0 0 0 0 0 1 1 1 1 0 0 0 0 0 0 0 0 0 0 0 0 0 0 0 0 0
1 1 1 1 1 1 1 1 1 1 0 0 0 0 0 0 0 0 0 0 0 0 0 0 0 0 0 0 0 0 0 0 0 0 0 0 0 0 0 0 0 0 0
1 1 1 1 1 1 1 1 1 0 0 0 0 0 0 0 0 0 0 0 0 0 0 0 0 0 0 0 0 0 0 0 0 0 0 0 0 0 0 0 0 0 0
1 1 1 1 1 1 0 0 0 0 0 0 0 0 0 0 0 0 0 0 0 0 0 0 0 0 0 0 0 0 0 0 0 0 0 0 0 0 0 0 0 0 0
1 1 1 0 0 0 0 0 0 0 0 0 0 0 0 0 0 0 0 0 0 0 0 0 0 0 0 0 0 0 0 0 0 0 0 0 0 0 0 0 0 0 0
1 1 0 0 0 0 0 0 0 0 0 0 0 0 0 0 0 0 0 0 0 0 0 0 0 0 0 0 0 0 0 0 0 0 0 0 0 0 0 0 0 0 0
0 0 0 0 0 0 0 0 0 0 0 0 0 0 0 0 0 0 0 0 0 0 0 0 0 0 0 0 0 0 0 0 0 0 0 0 0 0 0 0 0 0 0
0 0 0 0 0 0 0 0 0 0 0 0 0 0 0 0 0 0 0 0 0 0 0 0 0 0 0 0 0 0 0 0 0 0 0 0 0 0 0 0 0 0 0
0 0 0 0 0 0 0 0 0 0 0 0 0 0 0 0 0 0 0 0 0 0 0 0 0 0 0 0 0 0 0 0 0 0 0 0 0 0 0 0 0 0 0
0 0 0 0 0 0 0 0 0 0 0 0 0 0 0 0 0 0 0 0 0 0 0 0 0 0 0 0 0 0 0 0 0 0 0 0 0 0 0 0 0 0 0
0 0 0 0 0 0 0 0 0 0 0 0 0 0 0 0 0 0 0 0 0 0 0 0 0 0 0 0 0 0 0 0 0 0 0 0 0 0 0 0 0 0 0
0 0 0 0 0 0 0 0 0 0 0 0 0 0 0 0 0 0 0 0 0 0 0 0 0 0 0 0 0 0 0 0 0 0 0 0 0 0 0 0 0 0 0
0 0 0 0 0 0 0 0 0 0 0 0 0 0 0 0 0 0 0 0 0 0 0 0 0 0 0 0 0 0 0 0 0 0 0 0 0 0 0 0 0 0 0
0 0 0 0 0 0 0 0 0 0 0 0 0 0 0 0 0 0 0 0 0 0 0 0 0 0 0 0 0 0 0 0 0 0 0 0 0 0 0 0 0 0 0
0 0 0 0 0 0 0 0 0 0 0 0 0 0 0 0 0 0 0 0 0 0 0 0 0 0 0 0 0 0 0 0 0 0 0 0 0 0 0 0 0 0 0
0 0 0 0 0 0 0 0 0 0 0 0 0 0 0 0 0 0 0 0 0 0 0 0 0 0 0 0 0 0 0 0 0 0 0 0 0 0 0 0 0 0 0
0 0 0 0 0 0 0 0 0 0 0 0 0 0 0 0 0 0 0 0 0 0 0 0 0 0 0 0 0 0 0 0 0 0 0 0 0 0 0 0 0 0 0
0 0 0 0 0 0 0 0 0 0 0 0 0 0 0 0 0 0 0 0 0 0 0 0 0 0 0 0 0 0 0 0 0 0 0 0 0 0 0 0 0 0 0
0 0 0 0 0 0 0 0 0 0 0 0 0 0 0 0 0 0 0 0 0 0 0 0 0 0 0 0 0 0 0 0 0 0 0 0 0 0 0 0 0 0 0
0 0 0 0 0 0 0 0 0 0 0 0 0 0 0 0 0 0 0 0 0 0 0 0 0 0 0 0 0 0 0 0 0 0 0 0 0 0 0 0 0 0 0
0 0 0 0 0 0 0 0 0 0 0 0 0 0 0 0 0 0 0 0 0 0 0 0 0 0 0 0 0 0 0 0 0 0 0 0 0 0 0 0 0 0 0
0 0 0 0 0 0 0 0 0 0 0 0 0 0 0 0 0 0 0 0 0 0 0 0 0 0 0 0 0 0 0 0 0 0 0 0 0 0 0 0 0 0 0
Wind_Speed
7 7 6 7 7 7 7 7 7 6 6 6 6 7 7 7 7 7 7 6 7 7 7 6 6 5 3 2 2 2 2 2 3 3 2 1 1 1 3 3 4 5 6
7 6 6 6 6 7 7 6 6 6 6 6 6 6 7 7 7 7 8 7 7 8 7 6 6 5 5 4 3 3 2 2 3 4 2 1 2 2 2 3 4 4 4
6 6 5 5 5 5 5 5 5 5 5 5 6 6 6 6 6 6 7 7 7 7 6 6 6 6 6 4 4 3 2 3 2 2 2 2 2 2 2 3 4 3 5
5 5 5 4 4 3 3 4 4 4 5 5 5 5 5 5 5 5 6 6 6 5 5 5 5 5 5 4 4 3 3 2 2 2 2 2 2 2 1 2 3 3 4
5 4 4 4 4 3 3 4 3 3 4 4 4 4 4 4 4 5 5 6 5 5 4 3 3 3 3 3 2 1 1 1 1 2 2 2 1 1 1 2 2 3 3
4 4 4 3 3 4 4 4 3 3 3 3 3 3 3 2 2 3 3 3 3 3 3 2 3 3 4 4 3 2 1 1 1 1 2 2 2 1 2 2 2 2 3
4 4 4 4 4 4 4 4 3 3 2 3 2 3 2 2 2 3 3 2 2 2 2 2 2 1 3 3 3 2 1 1 1 1 1 2 2 2 2 3 3 3 3
4 4 4 4 4 4 4 4 3 3 3 3 3 3 3 3 3 3 4 3 3 3 2 2 2 3 2 1 2 3 2 2 1 1 1 1 2 2 3 3 4 4 4
5 4 4 3 3 4 4 4 3 4 4 4 4 4 4 4 5 4 4 3 4 4 4 6 6 5 6 5 4 3 3 1 2 2 2 1 1 2 2 2 3 3 4
5 4 4 4 4 4 5 5 5 5 6 6 6 6 6 6 7 7 5 4 5 5 5 7 9 7 7 6 4 3 3 1 1 1 1 1 1 2 2 1 2 2 3
5 5 6 6 5 5 5 6 7 7 7 7 8 8 8 8 9 9 7 4 4 5 5 5 4 7 8 8 6 4 2 1 1 1 1 1 1 1 1 1 1 1 2
7 8 8 7 6 6 7 7 7 7 8 7 7 7 7 7 9 9 10 9 7 6 5 4 4 7 8 7 5 4 4 3 1 2 2 2 2 1 1 1 1 1 2
9 9 9 9 9 8 8 8 6 6 6 6 6 6 6 5 6 10 11 10 9 6 5 6 5 5 5 4 4 4 3 2 2 3 2 2 2 2 2 1 2 1 2
10 9 9 9 10 10 8 8 7 6 5 6 6 6 5 5 5 4 4 5 6 5 4 4 3 2 2 3 3 2 2 3 3 3 3 2 2 2 3 3 3 3 2
10 10 10 10 10 11 11 9 9 8 6 6 6 5 5 5 5 6 4 4 3 3 1 2 2 3 3 4 4 4 4 4 3 3 3 3 3 3 3 3 3 3 3
9 8 8 8 8 9 10 11 16 13 16 16 13 10 8 8 7 10 11 9 8 7 5 4 5 4 5 4 4 3 3 3 3 3 3 3 3 3 3 3 3 3 4
9 8 7 7 8 8 8 9 9 10 15 16 14 13 11 9 9 9 8 8 7 6 5 5 5 5 5 4 4 4 4 4 4 4 4 3 3 3 3 3 4 4 4
9 8 7 6 7 7 7 7 7 8 8 8 9 9 8 8 8 7 6 5 5 6 6 6 5 5 5 5 5 4 4 4 4 4 4 4 4 4 4 4 4 4 5
7 6 5 6 6 6 7 7 8 8 8 7 6 5 4 5 6 8 6 5 6 6 6 6 5 5 5 5 4 4 4 4 5 4 4 4 4 4 4 4 4 5 5
6 8 6 6 7 7 7 7 7 7 7 6 6 4 2 2 4 6 6 6 7 7 6 6 5 6 6 5 5 5 5 5 5 5 5 5 5 4 5 5 5 5 5
6 7 7 7 7 7 7 7 7 7 6 6 6 5 5 5 6 7 6 6 6 6 5 5 6 6 6 5 5 6 7 6 6 6 6 6 6 5 5 4 5 5 5
6 6 7 7 7 6 6 6 6 6 6 7 6 6 7 7 6 6 6 6 6 6 6 6 6 6 6 6 6 7 7 8 8 8 7 7 6 6 6 5 5 5 5
6 7 8 7 7 6 6 6 6 6 7 7 6 6 6 6 6 6 6 6 6 6 6 5 6 6 6 7 7 8 8 7 7 8 8 7 7 6 6 5 6 6 5
7 7 7 7 6 5 6 6 6 7 7 7 6 6 6 5 6 6 6 6 5 5 5 6 6 9 10 8 6 7 7 7 8 7 9 9 8 6 6 6 6 7 5
6 6 6 6 6 6 6 7 7 7 6 6 6 5 6 6 5 5 5 4 5 5 6 6 5 7 10 11 9 7 6 7 6 8 8 8 8 7 7 7 6 6 6
6 6 6 6 6 6 6 6 6 6 6 5 5 5 5 5 5 4 4 4 4 4 4 5 7 8 9 8 8 7 6 7 8 9 7 7 7 6 7 6 8 7 7
Wind_Direction
197 200 207 201 204 204 207 210 206 200 198 196 196 198 198 203 204 204 207 205 211 212 218 219 215 220 231 232 227 233 237 230 249 267 273 290 243 204 164 208 216 198 205
189 191 199 199 198 201 205 204 197 194 196 196 196 197 203 206 204 203 210 212 214 215 218 218 216 219 223 232 235 243 245 241 242 263 279 295 275 224 193 223 242 236 227
174 179 187 195 196 196 193 189 189 190 193 191 195 199 206 208 208 208 210 217 217 214 214 216 218 221 226 230 228 234 243 253 236 237 254 259 261 255 235 243 253 266 265
161 168 174 180 181 182 175 173 181 186 188 186 194 196 202 207 206 209 211 214 217 216 216 218 220 222 223 226 229 231 236 251 259 250 255 263 264 262 245 253 268 268 268
149 157 159 162 163 169 166 163 167 177 180 179 186 190 196 203 214 214 214 214 218 219 213 212 205 183 178 190 210 204 235 241 251 254 259 273 279 298 295 294 287 295 295
129 138 139 142 146 145 145 147 146 149 158 162 170 172 180 203 198 191 196 210 209 202 193 191 177 155 139 136 123 108 136 226 256 267 269 271 289 311 310 299 293 306 300
111 108 115 130 135 135 146 139 139 140 137 139 137 127 121 88 90 126 147 155 147 154 165 170 180 125 118 132 139 137 75 24 211 236 279 305 318 325 324 314 311 304 286
106 101 103 117 122 124 124 127 128 123 119 116 111 104 91 65 82 121 125 127 101 88 75 80 95 72 56 87 129 115 91 54 56 165 180 276 311 333 319 301 291 288 281
90 84 81 90 102 109 115 115 117 115 106 95 89 91 84 58 55 82 110 109 101 86 70 59 68 69 47 60 88 96 86 59 78 105 135 206 309 331 335 334 324 316 306
83 81 76 78 84 86 95 100 100 101 96 89 78 72 72 65 56 69 93 99 100 92 81 71 63 66 57 64 87 93 88 54 24 25 51 321 300 327 3 15 352 333 320
87 83 77 79 82 81 87 93 99 99 96 88 80 72 66 62 62 62 73 93 99 95 88 79 64 64 69 68 72 73 69 20 350 6 45 34 15 13 12 16 20 334 315
83 79 73 70 72 79 85 87 92 97 96 91 86 76 64 57 56 63 67 73 82 88 89 88 84 76 71 68 70 64 51 30 15 28 31 25 16 9 336 317 285 255 249
84 79 76 73 67 65 71 77 80 82 90 92 88 84 76 68 64 67 74 75 77 84 88 102 110 106 96 83 72 53 44 33 34 35 29 15 3 345 331 329 315 276 266
91 86 82 78 71 61 57 57 59 55 75 87 88 87 81 64 51 53 75 84 91 93 107 118 113 88 81 72 71 59 57 45 33 21 7 5 359 356 358 360 349 336 319
96 94 89 84 83 74 65 53 61 51 48 70 77 76 78 69 32 35 57 56 54 64 93 112 95 78 68 62 59 53 45 35 22 10 10 9 8 9 9 5 352 346 353
102 101 100 99 96 94 92 78 58 63 60 61 66 80 74 74 64 55 53 48 41 44 62 67 62 57 54 49 43 45 47 39 21 20 20 15 11 10 6 2 358 357 349
99 101 105 107 108 108 106 102 95 73 64 61 63 69 77 72 61 52 45 37 39 53 64 63 58 52 47 41 39 38 36 32 21 20 15 13 8 1 359 359 358 354 347
98 99 105 108 110 112 113 112 109 106 95 80 65 64 70 70 59 48 43 49 57 57 61 61 59 52 47 38 33 33 31 27 21 11 13 8 2 356 354 352 354 351 336
92 94 99 105 105 106 107 103 99 99 101 103 100 84 70 78 60 45 42 53 60 58 58 54 51 49 46 39 29 25 28 28 18 10 11 1 358 356 352 345 343 342 332
88 87 90 98 100 98 96 97 99 98 95 92 89 86 96 97 74 66 60 53 58 57 52 51 48 49 44 35 24 19 24 25 15 10 4 356 352 346 339 337 339 337 335
99 95 90 87 85 86 87 88 89 89 88 87 81 57 46 76 71 65 62 58 58 58 51 45 46 44 38 29 23 21 22 21 14 5 357 350 348 342 335 338 340 340 339
95 92 88 85 85 85 89 93 94 94 96 96 94 80 62 68 69 67 64 59 59 57 52 47 46 44 35 29 28 24 24 21 11 360 350 345 342 338 338 341 342 339 343
96 97 95 93 94 96 95 93 93 93 90 86 82 78 71 67 66 63 63 60 55 52 51 51 51 47 42 40 41 37 29 15 357 349 344 339 336 334 336 341 340 341 342
92 94 97 99 101 99 94 92 91 89 87 85 84 83 81 75 70 66 64 60 57 53 52 51 54 55 52 46 44 44 34 9 349 344 340 327 326 333 338 338 337 339 339
91 94 96 95 93 91 89 87 84 83 83 82 80 79 80 78 77 73 70 67 66 62 61 59 56 55 55 53 47 40 22 6 359 344 327 320 324 332 337 335 334 334 339
88 90 90 89 89 90 90 89 87 84 81 79 76 73 75 77 75 69 64 59 59 62 60 68 68 63 56 55 53 44 17 359 350 340 324 315 322 334 337 329 333 335 336